GEFSSGP_con_prob3kmehi_258.txt.gz
EHI
0 0 0 0 0 0 0 0 0 0 0 0 0 0 0 0 0 1 3 4 7 11 12 16 21 23 22 18 15 11 8 7 7 7 6 4 3 3 3 3 3 3 3 3 3 2 1 0 0
0 0 0 0 0 0 0 0 0 0 0 0 0 0 0 0 0 2 6 9 12 14 14 17 24 26 24 20 15 11 8 8 6 6 5 4 3 3 3 3 3 3 2 2 2 1 0 0 0
0 0 0 0 0 0 0 0 0 0 0 0 0 0 0 0 1 3 8 15 20 20 17 22 29 31 26 20 14 10 8 8 5 4 4 4 3 3 3 3 3 2 1 0 0 0 0 0 0
0 0 0 0 0 0 0 0 0 0 0 0 0 0 0 0 2 6 12 19 25 24 23 28 34 32 26 19 13 9 8 6 5 3 3 3 3 3 3 3 1 1 0 0 0 0 0 0 0
0 0 0 0 0 0 0 0 0 0 0 0 0 0 1 3 7 13 17 22 25 26 27 32 35 32 25 18 13 10 7 4 3 3 2 2 2 3 3 3 1 0 1 2 1 0 0 0 0
0 0 0 0 0 0 0 0 0 0 0 0 0 1 2 6 13 17 20 22 25 27 29 29 30 27 22 17 12 9 6 3 2 2 1 1 1 1 2 3 2 2 2 3 2 0 0 0 0
0 0 0 0 0 0 0 0 0 0 0 0 1 2 3 7 13 18 21 24 26 28 27 24 21 19 18 15 11 8 6 4 2 1 0 0 1 1 2 3 3 3 2 2 1 0 0 0 0
0 0 0 0 0 0 0 0 0 0 0 0 1 2 3 6 13 21 25 26 27 26 24 19 15 14 14 12 10 8 8 7 4 1 0 0 1 2 2 2 2 2 1 1 0 0 0 0 0
0 0 0 0 0 0 0 0 0 0 1 2 2 3 4 10 19 26 28 28 27 24 21 17 13 12 12 10 9 8 9 7 5 1 0 0 1 1 1 1 1 1 0 0 0 0 0 0 0
0 0 0 0 0 0 0 0 0 0 1 3 5 5 7 14 22 26 27 28 27 23 20 16 12 9 10 10 9 8 7 5 3 1 0 0 0 0 0 0 0 0 0 0 0 0 0 0 0
0 0 0 0 0 0 0 0 0 0 0 1 4 6 9 15 20 23 24 26 26 23 19 15 10 8 9 10 10 8 5 2 1 0 0 0 1 0 0 0 0 0 0 0 0 0 0 0 0
0 0 0 0 0 0 0 0 0 0 0 0 2 5 8 12 18 21 21 21 20 18 16 12 8 7 7 9 9 7 3 1 0 0 0 0 0 0 0 0 0 0 0 0 0 0 0 0 0
0 0 0 0 0 0 0 0 0 0 0 1 3 5 7 10 15 18 17 15 14 14 12 9 6 5 7 9 8 5 2 0 0 0 0 0 0 0 0 0 0 0 0 0 0 0 0 0 0
0 0 0 0 0 0 0 0 0 0 1 2 4 5 6 7 9 11 12 11 10 11 10 8 5 4 6 8 7 4 1 0 0 0 0 0 0 0 0 0 0 0 0 0 0 0 0 0 0
0 0 0 0 0 0 0 0 0 0 1 2 3 3 4 4 5 6 7 8 8 10 11 9 6 5 6 6 5 3 1 0 0 0 0 0 0 0 0 0 0 0 0 0 0 0 0 0 0
0 0 0 0 0 0 0 0 0 0 0 1 1 2 2 2 3 3 4 5 7 9 11 10 7 5 4 4 4 2 1 0 0 0 0 0 0 0 0 0 0 0 0 0 0 0 0 0 0
0 0 0 0 0 0 0 0 0 0 0 0 0 1 1 1 1 2 3 4 6 8 9 9 7 4 3 3 3 2 1 0 0 0 0 0 0 0 0 0 0 0 0 0 0 0 0 0 0
0 0 0 0 0 0 0 0 0 0 0 0 0 0 0 0 0 1 2 3 5 7 8 7 6 4 3 4 3 2 1 0 0 0 0 0 0 0 0 0 0 0 0 0 0 0 0 0 0
0 0 0 0 0 0 0 0 0 0 0 0 0 0 0 0 0 0 1 2 3 5 6 6 5 4 3 3 2 1 0 0 0 0 0 0 0 0 0 0 0 0 0 0 0 0 0 0 0
0 0 0 0 0 0 0 0 0 0 0 0 0 0 0 0 0 0 1 1 1 2 3 3 3 2 1 1 1 0 0 0 0 0 0 0 0 0 0 0 0 0 0 0 0 0 0 0 0
0 0 0 0 0 0 0 0 0 0 0 0 0 0 0 0 0 0 0 0 0 1 1 1 1 1 0 0 1 0 0 0 0 0 0 0 0 0 0 0 0 0 0 0 0 0 0 0 0
0 0 0 0 0 0 0 0 0 0 0 0 0 0 0 0 0 0 0 0 0 0 0 1 0 0 0 0 0 0 0 0 0 0 0 0 0 0 0 0 0 0 0 0 0 0 0 0 0
0 0 0 0 0 0 0 0 0 0 0 0 0 0 0 0 0 0 0 0 0 0 0 0 0 0 0 0 0 0 0 0 0 0 0 0 0 0 0 0 0 0 0 0 0 0 0 0 0
0 0 0 0 0 0 0 0 0 0 0 0 0 0 0 0 0 0 0 0 0 0 1 1 0 0 1 1 1 0 0 0 0 0 0 0 0 0 0 0 0 0 0 0 0 0 0 0 0
0 0 0 0 0 0 0 0 0 0 0 0 0 0 0 0 0 0 0 0 0 0 1 2 1 0 1 2 2 0 0 0 0 0 0 0 0 0 0 0 0 0 0 0 0 0 0 0 0
0 0 0 0 0 0 0 0 0 0 0 0 0 0 0 0 0 0 0 0 0 0 1 2 1 0 1 2 2 0 0 0 0 0 0 0 0 0 0 0 0 0 0 0 0 0 0 0 0
0 0 0 0 0 0 0 0 0 0 0 0 0 0 0 0 0 0 0 0 0 0 1 1 0 0 1 2 1 0 0 0 0 0 0 0 0 0 0 0 0 0 0 0 0 0 0 0 0
0 0 0 0 0 0 0 0 0 0 0 0 0 0 0 0 0 0 0 0 0 0 0 0 0 0 0 1 1 0 0 0 0 0 0 0 0 0 0 0 0 0 0 1 0 0 0 0 0
0 0 0 0 0 0 0 0 0 0 0 0 0 0 0 0 0 0 0 0 0 0 0 0 0 0 0 0 0 0 0 0 0 0 0 0 0 0 0 0 0 0 0 0 0 0 0 0 0
0 0 0 0 0 0 0 0 0 0 0 0 0 0 0 0 0 0 0 0 0 0 0 0 0 0 0 0 0 0 0 0 0 0 0 0 0 0 0 0 0 0 0 0 0 0 0 0 0

GEFSSGP_con_prob3kmehi_264.txt.gz
EHI
0 0 0 0 0 0 0 0 0 0 0 0 0 0 0 0 0 0 0 4 11 13 11 12 17 20 19 18 18 17 15 14 13 11 7 4 2 2 1 1 2 3 2 1 0 0 0 0 0
0 0 0 0 0 0 0 0 0 0 0 0 0 0 0 0 0 0 0 6 15 16 12 13 18 22 22 20 19 17 15 14 14 11 8 5 3 2 1 1 2 3 2 1 0 0 0 0 0
0 0 0 0 0 0 0 0 0 0 0 0 0 0 0 0 0 0 2 10 20 20 14 14 21 24 24 21 18 16 15 15 14 10 7 5 4 3 2 2 3 4 3 1 0 0 0 0 0
0 0 0 0 0 0 0 0 0 0 0 0 0 0 0 0 0 1 6 16 24 23 16 16 22 25 23 20 17 17 17 16 13 8 5 3 3 3 3 4 5 5 3 1 0 0 0 0 0
0 0 0 0 0 0 0 0 0 0 0 0 0 0 0 1 1 4 12 20 26 26 20 19 24 25 23 20 18 17 17 17 14 9 4 2 2 3 3 5 6 5 4 2 1 0 0 0 0
0 0 0 0 0 0 0 0 0 0 0 0 0 0 1 3 4 8 15 22 26 26 23 23 24 25 23 21 19 18 18 18 15 10 5 2 1 3 4 5 4 4 3 3 1 0 0 0 0
0 0 0 0 0 0 0 0 0 0 0 0 0 0 2 5 8 12 18 23 26 26 26 24 22 21 20 19 18 18 19 18 15 10 7 3 1 2 3 3 3 3 3 3 2 0 0 0 0
0 0 0 0 0 0 0 0 0 0 0 0 0 0 2 8 15 20 24 27 27 27 26 23 18 16 16 16 16 16 15 14 11 8 6 4 2 1 1 2 3 3 3 3 1 0 0 0 0
0 0 0 0 0 0 0 0 0 0 0 0 0 0 4 11 20 26 28 29 28 26 25 21 16 14 14 13 12 12 11 8 6 5 5 4 1 0 1 2 3 3 3 2 1 0 0 0 0
0 0 0 0 0 0 0 0 0 0 0 0 0 1 6 14 20 24 25 25 25 25 23 19 15 13 13 11 10 10 8 6 4 3 2 1 0 0 0 1 2 2 2 1 0 0 0 0 0
0 0 0 0 0 0 0 0 0 0 0 0 0 2 8 14 17 19 19 20 22 23 23 19 14 12 11 11 11 10 8 6 4 2 1 0 0 0 0 0 1 1 1 0 0 0 0 0 0
0 0 0 0 0 0 0 0 0 0 0 0 0 2 8 13 16 16 16 17 19 20 21 18 14 11 10 11 11 10 8 6 4 2 1 0 0 0 0 0 0 0 0 0 0 0 0 0 0
0 0 0 0 0 0 0 0 0 0 0 0 1 3 7 12 15 15 16 16 16 17 18 16 12 9 9 10 10 10 10 7 4 2 1 0 0 0 0 0 0 0 0 0 0 0 0 0 0
0 0 0 0 0 0 0 0 0 0 0 0 1 3 6 9 12 14 14 15 15 15 15 13 9 7 8 9 9 10 10 8 5 3 1 0 0 0 0 0 0 0 0 0 0 0 0 0 0
0 0 0 0 0 0 0 0 0 0 0 0 0 1 3 6 7 8 10 13 15 14 14 12 8 6 7 7 8 9 9 8 5 2 1 0 0 0 0 0 0 0 0 0 0 0 0 0 0
0 0 0 0 0 0 0 0 0 0 0 0 0 1 2 4 4 4 7 11 13 14 13 11 8 6 6 7 7 7 8 7 3 1 0 0 0 0 0 0 0 0 0 0 0 0 0 0 0
0 0 0 0 0 0 0 0 0 0 0 0 0 1 2 4 4 4 5 7 10 11 12 11 8 6 6 6 6 6 6 4 1 0 0 0 0 0 0 0 0 0 0 0 0 0 0 0 0
0 0 0 0 0 0 0 0 0 0 0 0 0 1 3 3 4 3 3 5 7 9 10 9 7 6 6 6 6 6 4 2 1 0 0 0 0 0 0 0 0 0 0 0 0 0 0 0 0
0 0 0 0 0 0 0 0 0 0 0 0 1 2 3 3 3 3 3 4 5 6 6 6 5 5 6 6 6 6 4 2 1 0 0 0 0 0 0 0 0 0 0 0 0 0 0 0 0
0 0 0 0 0 0 0 0 0 0 0 1 2 3 3 3 3 3 3 3 3 4 4 4 4 4 6 6 6 6 5 3 2 0 0 0 0 0 0 0 0 0 0 0 0 0 0 0 0
0 0 0 0 0 0 0 0 0 0 0 1 2 2 2 2 2 2 2 3 3 3 3 2 2 3 4 5 5 4 4 3 1 0 0 0 0 0 0 0 0 0 0 0 0 0 0 0 0
0 0 0 0 0 0 0 0 0 0 0 1 1 1 1 1 1 1 1 1 2 2 1 1 0 1 2 3 4 3 3 2 1 0 0 0 0 0 0 0 0 0 0 0 0 0 0 0 0
0 0 0 0 0 0 0 0 0 0 0 0 0 0 0 0 0 0 0 0 1 1 1 0 0 0 1 2 3 3 2 1 0 0 0 0 0 0 0 0 0 0 0 0 0 0 0 0 0
0 0 0 0 0 0 0 0 0 0 0 0 0 0 0 0 0 0 0 0 0 1 1 0 0 0 0 1 2 1 1 0 0 0 0 0 0 0 0 0 0 0 0 0 0 0 0 0 0
0 0 0 0 0 0 0 0 0 0 0 0 0 0 0 0 0 0 0 0 0 1 1 0 0 0 0 0 0 0 0 0 0 0 0 0 0 0 0 0 0 0 0 0 0 0 0 0 0
0 0 0 0 0 0 0 0 0 0 0 0 0 0 0 0 0 0 0 0 0 0 0 0 0 0 0 0 0 0 0 0 0 0 0 0 0 0 0 0 0 0 0 0 0 0 0 0 0
0 0 0 0 0 0 0 0 0 0 0 0 0 0 0 0 0 0 0 0 0 0 0 0 0 0 0 0 0 0 0 0 0 0 0 0 0 0 0 0 0 0 0 0 0 0 0 0 0
0 0 0 0 0 0 0 0 0 0 0 0 0 0 0 0 0 0 0 0 0 0 0 0 0 0 0 0 0 0 0 0 0 0 0 0 0 0 0 0 0 0 0 0 0 0 0 0 0
0 0 0 0 0 0 0 0 0 0 0 0 0 0 0 0 0 0 0 0 0 0 0 0 0 0 0 0 0 0 0 0 0 0 0 0 0 0 0 0 0 0 0 0 0 0 0 0 0
0 0 0 0 0 0 0 0 0 0 0 0 0 0 0 0 0 0 0 0 0 0 0 0 0 0 0 0 0 0 0 0 0 0 0 0 0 0 0 0 0 0 0 0 0 0 0 0 0

GEFSSGP_con_prob3kmehi_270.txt.gz
EHI
0 0 0 0 0 0 0 0 0 0 0 0 0 0 0 0 0 0 0 2 10 18 18 16 17 19 19 18 15 12 10 7 3 0 0 0 1 3 3 2 0 0 0 0 0 0 0 0 0
0 0 0 0 0 0 0 0 0 0 0 0 0 0 0 0 0 0 0 3 10 16 17 16 18 19 19 17 14 12 10 7 3 1 0 1 2 3 4 3 1 0 0 0 0 0 0 0 0
0 0 0 0 0 0 0 0 0 0 0 0 0 0 0 0 0 0 1 5 11 15 16 18 21 21 19 17 14 12 10 7 4 2 0 1 2 3 3 3 2 1 0 0 0 0 0 0 0
0 0 0 0 0 0 0 0 0 0 0 0 0 0 0 0 0 0 2 7 11 15 17 19 22 22 20 17 14 13 11 7 4 3 2 1 2 2 1 1 2 2 1 0 0 0 0 0 0
0 0 0 0 0 0 0 0 0 0 0 0 0 0 0 0 0 1 4 8 11 15 18 18 21 22 20 17 15 14 11 7 4 3 3 2 1 1 0 1 2 2 2 1 1 0 0 0 0
0 0 0 0 0 0 0 0 0 0 0 0 0 0 1 1 1 3 7 10 12 16 19 18 19 19 18 16 15 14 11 6 3 3 3 1 0 0 0 0 1 2 2 1 1 0 0 0 0
0 0 0 0 0 0 0 0 0 0 0 0 0 0 2 3 4 7 12 14 14 17 19 19 17 16 14 12 12 10 7 4 3 3 2 1 1 0 1 1 2 3 3 2 1 0 0 0 0
0 0 0 0 0 0 0 0 0 0 0 0 0 0 1 4 6 11 17 19 17 18 19 19 17 14 10 8 7 5 3 2 1 1 2 2 2 1 1 2 4 5 4 3 1 0 0 0 0
0 0 0 0 0 0 0 0 0 0 0 0 0 0 1 4 9 15 21 22 19 18 18 19 18 15 11 8 6 4 2 1 0 0 1 2 2 1 1 2 3 4 4 3 2 1 0 0 0
0 0 0 0 0 0 0 0 0 0 0 0 0 0 1 4 8 15 19 19 18 17 18 19 18 17 15 12 9 6 4 2 1 0 1 2 3 2 1 1 3 3 3 3 2 1 0 0 0
0 0 0 0 0 0 0 0 0 0 0 0 0 1 1 2 4 9 13 15 16 18 18 17 18 18 17 16 13 10 9 7 3 1 1 2 5 5 4 4 4 3 2 2 1 1 0 0 0
0 0 0 0 0 0 0 0 0 0 0 0 1 1 1 0 1 5 10 14 16 17 16 15 15 16 16 16 15 13 12 11 8 5 3 4 7 7 7 7 6 4 2 1 0 0 0 0 0
0 0 0 0 0 0 0 0 0 0 0 0 1 2 1 0 0 3 8 13 15 15 14 12 12 12 13 14 14 14 13 12 10 7 5 5 6 7 7 8 7 4 1 0 0 0 0 0 0
0 0 0 0 0 0 0 0 0 0 0 0 2 2 1 0 0 1 5 9 12 13 12 11 9 8 9 11 13 13 13 11 9 7 6 6 6 6 6 6 5 3 1 0 0 0 0 0 0
0 0 0 0 0 0 0 0 0 0 0 0 1 1 1 0 0 1 3 6 9 11 12 10 8 7 7 9 11 13 12 10 7 6 6 5 5 5 5 4 3 3 2 1 0 0 0 0 0
0 0 0 0 0 0 0 0 0 0 0 0 0 0 0 1 1 1 2 5 9 11 11 9 7 6 6 7 9 10 11 9 7 7 6 5 4 5 5 4 3 3 3 2 1 0 0 0 0
0 0 0 0 0 0 0 0 0 0 0 0 0 0 0 1 2 1 2 4 8 10 9 8 7 6 6 5 5 6 8 8 7 7 7 6 5 6 6 4 3 3 3 2 1 0 0 0 0
0 0 0 0 0 0 0 0 0 0 0 0 0 0 0 1 1 1 2 4 6 8 8 7 6 5 4 4 3 4 5 6 5 5 6 6 5 6 6 5 4 3 3 3 1 0 0 0 0
0 0 0 0 0 0 0 0 0 0 0 0 0 0 0 0 0 0 1 3 5 6 7 5 4 3 3 3 3 3 4 5 5 4 4 4 4 5 6 5 4 3 3 3 2 1 1 0 0
0 0 0 0 0 0 0 0 0 0 0 0 0 0 0 0 0 0 1 2 4 5 6 4 2 1 2 2 3 3 4 5 5 4 3 3 3 4 4 5 4 3 3 3 3 3 2 1 0
0 0 0 0 0 0 0 0 0 0 0 0 0 0 0 0 1 1 1 2 3 4 5 3 1 0 1 1 1 2 3 3 3 3 3 3 3 3 3 4 3 3 3 3 3 3 3 2 1
0 0 0 0 0 0 0 0 0 0 0 0 0 0 0 0 1 2 2 3 3 3 4 3 1 0 0 0 0 1 1 1 1 3 3 3 3 3 3 3 3 3 3 3 2 3 3 2 1
0 0 0 0 0 0 0 0 0 0 0 0 0 0 0 0 1 2 2 3 3 3 3 2 1 1 0 0 0 0 0 0 1 2 3 3 3 3 3 3 3 3 3 3 3 3 3 2 1
0 0 0 0 0 0 0 0 0 0 0 0 0 0 0 0 0 1 1 2 2 3 3 2 1 0 0 0 0 0 0 0 1 2 3 3 3 3 3 3 3 3 3 3 3 3 3 1 0
0 0 0 0 0 0 0 0 0 0 0 0 0 0 0 0 0 0 0 0 1 2 2 2 1 0 0 0 0 0 0 0 0 1 3 3 3 3 3 3 3 3 3 3 3 3 2 1 0
0 0 0 0 0 0 0 0 0 0 0 0 0 0 0 0 0 0 0 0 0 1 1 1 0 0 0 0 0 0 0 0 0 1 2 3 3 3 3 3 3 3 3 2 2 2 1 0 0
0 0 0 0 0 0 0 0 0 0 0 0 0 0 0 0 0 0 0 0 0 0 0 0 0 0 0 0 0 0 0 0 0 0 2 3 3 2 2 2 2 2 1 1 1 1 0 0 0
0 0 0 0 0 0 0 0 0 0 0 0 0 0 0 0 0 0 0 0 0 0 0 0 0 0 0 0 0 0 0 0 0 0 1 2 1 1 1 1 1 1 0 0 0 0 0 0 0
0 0 0 0 0 0 0 0 0 0 0 0 0 0 0 0 0 0 0 0 0 0 0 0 0 0 0 0 0 0 0 0 0 0 1 1 0 0 0 0 0 0 0 0 0 0 0 0 0
0 0 0 0 0 0 0 0 0 0 0 0 0 0 0 0 0 0 0 0 0 0 0 0 0 0 0 0 0 0 0 0 0 0 0 0 0 0 0 0 0 0 0 0 0 0 0 0 0

GEFSSGP_con_prob3kmehi_276.txt.gz
EHI
0 0 0 0 0 0 0 0 0 0 0 0 0 0 1 0 0 0 4 15 26 30 28 26 26 23 20 15 8 3 1 0 0 0 0 0 0 0 1 1 0 0 0 0 0 0 0 0 0
0 0 0 0 0 0 0 0 0 0 0 0 0 0 1 0 0 1 7 17 25 28 26 24 24 23 21 16 10 5 2 0 0 0 0 0 0 1 1 1 0 0 0 0 0 0 0 0 0
0 0 0 0 0 0 0 0 0 0 0 0 0 0 1 0 0 3 11 18 23 24 22 22 24 24 21 18 13 8 5 2 1 0 0 0 0 1 1 1 0 0 0 0 0 0 0 0 0
0 0 0 0 0 0 0 0 0 0 0 0 0 2 2 2 2 6 13 20 21 21 21 22 24 25 23 20 17 12 8 5 2 0 0 0 0 0 0 0 0 0 0 0 0 0 0 0 0
0 0 0 0 0 0 0 0 0 0 0 0 1 4 5 5 5 8 14 20 23 22 21 21 23 25 24 21 19 16 12 7 2 0 1 1 1 0 0 0 0 0 0 0 0 0 0 0 0
0 0 0 0 0 0 0 0 0 0 0 0 2 5 5 5 7 11 16 20 23 23 20 19 21 23 23 21 20 17 13 7 2 1 2 2 1 0 0 0 0 0 0 0 0 0 0 0 0
0 0 0 0 0 0 0 0 0 0 0 0 1 4 5 5 8 15 19 20 22 22 18 17 19 20 20 21 21 18 13 7 3 2 2 1 0 0 0 0 0 0 0 0 0 0 0 0 0
0 0 0 0 0 0 0 0 0 0 0 0 1 4 6 6 10 17 21 22 22 20 16 15 16 18 19 19 18 16 12 7 4 3 2 1 0 0 0 0 0 0 0 0 0 0 0 0 0
0 0 0 0 0 0 0 0 0 0 0 1 3 6 8 9 14 20 23 24 22 19 15 13 14 15 16 15 15 13 11 7 5 3 2 1 0 0 0 0 0 0 0 0 0 0 0 0 0
0 0 0 0 0 0 0 0 0 0 2 4 6 8 9 11 17 22 23 23 22 19 15 14 14 13 12 12 13 12 9 7 4 2 1 0 0 0 0 0 0 0 0 0 0 0 0 0 0
0 0 0 0 0 0 0 0 0 0 2 5 7 8 8 10 16 19 20 21 21 19 17 15 15 12 10 10 11 10 9 6 4 1 0 0 0 0 0 1 1 1 0 0 0 0 0 0 0
0 0 0 0 0 0 0 0 0 0 1 4 6 7 7 8 11 14 17 18 19 18 16 16 16 14 12 10 9 8 7 6 4 2 1 1 0 0 0 1 2 2 1 0 0 0 0 0 0
0 0 0 0 0 0 0 0 0 0 1 4 5 6 5 5 7 10 13 16 18 17 16 17 17 16 13 10 8 7 6 5 3 2 2 2 1 1 2 2 3 3 2 0 0 0 0 0 0
0 0 0 0 0 0 0 0 0 1 2 4 5 5 4 4 5 8 11 15 18 18 18 18 18 17 13 9 7 6 5 3 1 1 1 2 3 3 4 4 4 3 2 0 0 0 0 0 0
0 0 0 0 0 0 0 0 0 1 2 3 4 4 4 3 5 7 10 13 16 17 17 17 17 16 12 8 6 6 4 3 1 0 1 1 3 5 6 6 4 3 2 1 0 0 0 0 0
0 0 0 0 0 0 0 0 0 0 2 3 3 4 3 3 4 6 9 11 12 13 15 16 14 12 10 7 6 6 5 4 1 1 1 1 2 5 6 6 4 3 3 2 1 0 0 0 0
0 0 0 0 0 0 0 0 0 1 2 3 3 3 3 3 3 5 7 9 9 9 12 15 13 10 9 7 6 6 6 5 2 1 2 2 3 4 6 5 4 4 4 4 3 1 0 0 0
0 0 0 0 0 0 0 0 0 1 3 3 3 3 3 3 3 4 6 7 7 8 11 12 12 10 9 8 6 6 6 5 2 0 1 2 3 4 5 5 5 5 6 6 5 2 0 0 0
0 0 0 0 0 0 0 1 1 2 3 3 2 2 2 2 1 2 5 6 6 7 8 9 10 10 10 8 7 6 6 5 2 0 0 1 2 3 4 5 6 6 6 6 6 4 1 0 0
0 0 0 0 0 0 1 2 2 2 2 1 1 1 1 1 1 1 3 5 5 5 6 7 8 10 10 8 7 6 6 5 2 0 0 0 1 1 3 4 5 6 6 6 5 4 2 1 0
0 0 0 0 0 0 1 2 2 1 1 0 0 0 1 1 0 1 3 3 3 2 4 6 9 9 9 7 6 6 5 4 2 1 0 0 0 1 2 3 3 4 4 4 4 3 3 2 1
0 0 0 0 0 0 0 1 1 0 0 0 0 0 0 0 0 2 3 3 1 1 3 7 9 8 7 5 4 3 3 3 2 1 0 0 0 0 1 1 1 2 3 3 3 3 3 3 3
0 0 0 0 0 0 0 0 0 0 0 0 0 0 0 0 0 1 3 2 1 1 3 7 8 7 5 4 3 1 1 1 1 0 0 0 0 0 0 0 0 1 3 3 3 3 3 3 3
0 0 0 0 0 0 0 0 0 0 0 0 0 0 0 0 0 1 2 2 1 1 3 6 7 4 2 1 1 0 0 0 0 0 0 0 0 0 0 0 0 1 2 3 3 3 3 3 3
0 0 0 0 0 0 0 0 0 0 0 0 0 0 0 0 0 1 2 2 1 1 3 5 4 2 0 0 0 0 0 0 0 0 0 0 0 0 0 0 0 0 1 3 3 3 3 3 3
0 0 0 0 0 0 0 0 0 0 0 0 0 0 0 0 0 0 1 2 2 2 3 4 3 1 0 0 0 0 0 0 0 0 0 0 0 0 0 0 0 0 1 2 3 3 3 3 3
0 0 0 0 0 0 0 0 0 0 0 0 0 0 0 0 0 0 2 3 3 3 3 3 2 1 0 0 0 0 0 0 0 0 0 0 0 0 0 0 0 0 1 2 3 3 3 3 3
0 0 0 0 0 0 0 0 0 0 0 0 0 0 0 0 0 0 1 2 3 3 3 3 2 1 0 0 0 0 0 0 0 0 0 0 0 0 0 0 0 0 0 1 3 3 3 3 3
0 0 0 0 0 0 0 0 0 0 0 0 0 0 0 0 0 0 0 1 1 2 2 1 1 0 0 0 0 0 0 0 0 0 0 0 0 0 0 0 0 0 0 1 2 3 3 3 3
0 0 0 0 0 0 0 0 0 0 0 0 0 0 0 0 0 0 0 0 0 1 1 0 0 0 0 0 0 0 0 0 0 0 0 0 0 0 0 0 0 0 0 1 2 3 3 3 2

GEFSSGP_con_prob3kmehi_282.txt.gz
EHI
0 0 0 0 0 0 0 0 0 0 0 0 0 0 0 0 0 1 3 6 9 12 16 22 28 30 27 25 22 16 10 7 5 4 4 4 4 2 2 2 1 1 1 1 0 0 0 0 0
0 0 0 0 0 0 0 0 0 0 0 0 0 0 0 0 1 2 4 7 11 15 18 23 29 29 26 24 21 15 10 8 6 4 4 5 5 3 1 1 1 1 1 0 0 0 0 0 0
0 0 0 0 0 0 0 0 0 0 0 0 0 0 0 1 2 3 5 9 16 18 19 23 28 28 25 22 19 14 10 8 6 5 6 6 6 3 1 0 1 1 0 0 0 0 0 0 0
0 0 0 0 0 0 0 0 0 0 0 0 0 1 1 2 4 6 9 13 18 19 18 22 25 25 24 22 20 15 11 8 7 7 7 7 6 4 2 0 0 0 0 0 0 0 0 0 0
0 0 0 0 0 0 0 0 0 0 0 0 1 3 3 4 7 10 13 16 17 17 17 20 23 23 22 22 20 17 13 10 9 9 8 7 6 3 1 0 0 0 0 0 0 0 0 0 0
0 0 0 0 0 0 0 0 0 0 0 1 3 5 5 6 10 14 16 16 16 17 17 19 21 22 21 20 19 17 15 13 11 9 8 8 6 2 0 0 0 0 0 0 0 0 0 0 0
0 0 0 0 0 0 0 0 0 0 0 1 3 6 6 8 11 15 17 17 17 18 18 18 19 20 19 17 16 15 15 15 12 9 6 6 5 1 0 0 1 1 1 0 0 1 0 0 0
0 0 0 0 0 0 0 0 0 0 0 2 4 5 7 9 12 15 17 19 19 18 17 16 17 18 16 14 13 12 12 13 12 8 4 2 2 1 0 0 1 1 1 0 0 0 0 0 0
0 0 0 0 0 0 0 0 0 0 1 3 4 5 7 11 14 16 17 19 19 17 16 15 15 15 15 13 11 10 10 10 9 7 4 2 1 1 0 0 0 0 0 0 0 0 0 0 0
0 0 0 0 0 0 0 0 0 1 2 4 5 5 8 11 14 16 16 16 16 16 16 16 15 14 14 13 11 10 9 7 6 6 6 5 2 1 1 0 0 0 0 0 0 0 0 0 0
0 0 0 0 0 0 0 0 0 1 3 4 5 6 8 11 12 14 14 13 12 13 15 16 15 14 14 14 13 10 8 6 4 5 6 5 3 2 1 1 1 1 0 0 0 0 0 0 0
0 0 0 0 0 0 0 0 1 2 3 4 5 6 7 10 11 12 12 11 10 11 13 14 14 13 13 14 12 9 6 4 3 3 3 3 2 2 2 3 3 2 1 0 0 0 0 0 0
0 0 0 0 0 0 0 1 2 3 4 5 6 6 6 9 11 11 11 10 10 10 11 12 13 12 12 12 10 6 4 3 3 2 1 1 1 1 2 4 4 4 2 1 0 0 0 0 0
0 0 0 0 0 0 0 2 3 3 4 6 8 7 6 8 10 10 9 8 9 9 9 10 11 11 11 10 7 5 3 3 3 1 0 0 0 0 1 3 4 4 3 2 1 0 0 0 0
0 0 0 0 0 0 0 1 3 4 4 6 8 8 7 7 7 7 7 7 7 7 7 8 9 10 10 9 6 4 3 3 2 1 0 0 0 0 0 1 2 3 3 3 2 1 0 0 0
0 0 0 0 0 0 0 1 2 4 5 4 5 7 8 6 5 4 5 5 5 4 5 6 7 9 9 9 6 4 3 3 2 1 0 0 0 0 0 0 1 1 2 3 2 1 0 0 0
0 0 0 0 0 0 0 0 2 3 4 3 4 5 6 6 5 4 4 3 2 2 3 5 7 7 8 8 6 4 3 3 2 1 0 0 0 0 0 0 0 0 1 2 1 1 0 0 0
0 0 0 0 0 0 0 1 2 3 3 3 3 4 5 6 6 5 4 2 0 1 2 5 6 5 5 5 4 3 3 3 2 1 0 0 0 0 0 0 0 0 0 0 1 1 1 0 0
0 0 0 0 0 0 0 1 3 3 3 3 3 3 4 5 5 4 3 1 0 0 2 3 3 4 3 3 2 2 3 3 1 0 0 0 0 0 0 0 0 0 0 0 1 2 2 1 0
0 0 0 0 0 0 0 2 3 3 3 3 3 3 3 3 3 3 3 2 1 1 1 1 1 2 2 1 1 2 3 2 1 0 0 0 0 0 0 0 0 0 0 0 1 2 2 1 0
0 0 0 0 0 0 0 1 2 3 3 3 2 2 2 1 2 3 3 3 2 1 0 0 0 1 1 0 0 2 3 2 1 0 0 0 0 0 0 0 0 0 0 0 0 1 1 0 0
0 0 0 0 0 0 0 0 1 2 2 1 1 1 1 1 2 3 3 3 3 1 1 1 0 0 0 0 0 1 3 2 1 0 0 0 0 0 0 0 0 0 0 0 0 0 0 0 0
0 0 0 0 0 0 0 0 0 1 1 0 0 0 0 0 1 2 3 3 3 2 2 2 1 0 0 0 0 1 2 2 1 0 0 0 0 0 0 0 0 0 0 0 0 1 0 0 0
0 0 0 0 0 0 0 0 0 0 0 0 0 0 0 0 0 1 3 3 3 2 2 1 1 0 0 0 0 1 1 1 0 0 0 0 0 0 0 0 0 0 0 0 0 0 0 0 0
0 0 0 0 0 0 0 0 0 0 0 0 0 0 0 0 0 1 2 3 3 1 1 1 1 0 0 0 0 0 0 0 0 0 0 0 0 0 0 0 0 0 0 0 0 0 0 0 0
0 0 0 0 0 0 0 0 0 0 0 0 0 0 0 0 0 1 2 3 2 1 1 2 2 1 1 0 0 0 0 0 0 0 0 0 0 0 0 0 0 0 0 0 0 0 0 0 0
0 0 0 0 0 0 0 0 0 0 0 0 0 0 0 0 0 1 2 2 2 1 1 2 3 2 2 1 0 0 0 0 0 0 0 0 0 0 0 0 0 0 0 0 0 0 0 0 0
0 0 0 0 0 0 0 0 0 0 0 0 0 0 0 0 0 0 1 1 1 2 2 2 2 2 2 1 0 0 0 0 0 0 0 0 0 0 0 0 0 0 0 0 0 0 0 0 0
0 0 0 0 0 0 0 0 0 0 0 0 0 0 0 0 0 0 0 0 0 1 2 2 1 1 1 1 0 0 0 0 0 0 0 0 0 0 0 0 0 0 0 0 0 0 0 0 0
0 0 0 0 0 0 0 0 0 0 0 0 0 0 0 0 0 0 0 0 0 0 1 2 2 1 0 0 0 0 0 0 0 0 0 0 0 0 0 0 0 0 0 0 0 0 0 0 0

GEFSSGP_con_prob3kmehi_288.txt.gz
EHI
0 0 0 0 0 0 0 0 0 0 0 0 0 0 0 0 0 0 0 1 4 8 12 17 21 23 22 20 19 19 20 19 17 13 10 7 7 9 8 5 2 2 2 2 2 1 0 0 0
0 0 0 0 0 0 0 0 0 0 0 0 0 0 0 0 0 0 0 2 4 8 12 17 22 25 24 22 20 20 19 17 15 12 8 5 6 8 7 5 3 3 2 1 1 0 0 0 0
0 0 0 0 0 0 0 0 0 0 0 0 0 0 0 0 1 1 1 3 5 7 10 16 22 26 26 24 22 21 19 17 14 11 7 4 5 7 7 6 4 3 2 1 0 0 0 0 0
0 0 0 0 0 0 0 0 0 0 0 0 0 0 0 1 2 3 3 4 5 7 10 15 22 25 26 25 23 22 21 19 17 13 8 5 5 7 7 6 4 2 1 0 0 0 0 0 0
0 0 0 0 0 0 0 0 0 0 0 0 0 0 1 2 3 4 4 5 6 8 11 16 21 24 24 23 23 23 22 22 20 16 11 7 5 7 8 6 3 1 0 0 0 0 0 0 0
0 0 0 0 0 0 0 0 0 0 0 0 0 2 4 4 5 6 6 6 8 9 11 15 19 20 19 20 21 22 23 23 20 16 11 7 5 6 7 5 2 0 0 0 0 0 0 0 0
0 0 0 0 0 0 0 0 0 0 0 0 0 3 5 7 7 7 8 9 10 11 11 14 16 15 14 16 18 19 20 20 17 13 10 7 5 5 4 4 2 0 0 0 0 0 0 0 0
0 0 0 0 0 0 0 0 0 0 0 0 0 2 6 8 9 9 9 11 12 12 11 13 14 14 13 13 15 16 15 14 13 11 8 5 4 3 2 1 1 1 0 0 0 0 0 0 0
0 0 0 0 0 0 0 0 0 0 0 0 1 3 6 8 9 9 9 10 10 11 10 10 11 13 13 11 11 12 11 9 9 8 5 3 3 2 1 0 1 1 0 0 0 1 1 0 0
0 0 0 0 0 0 0 0 0 0 0 1 2 4 6 8 8 8 7 7 7 8 8 8 8 10 11 10 9 9 9 8 7 5 3 3 3 2 0 0 0 0 0 0 0 1 1 0 0
0 0 0 0 0 0 0 0 0 0 0 2 3 5 6 7 6 6 6 6 6 6 6 7 7 7 8 9 8 7 8 8 5 2 1 2 2 2 1 0 0 0 0 0 0 0 0 0 0
0 0 0 0 0 0 0 0 0 0 0 2 3 5 6 5 5 5 6 5 4 4 5 6 6 7 7 7 7 7 7 6 4 1 0 1 1 1 1 0 0 0 0 0 0 0 0 0 0
0 0 0 0 0 0 0 0 0 0 1 2 3 4 5 5 4 5 5 4 3 3 3 4 6 7 7 7 7 7 6 5 3 1 0 0 0 0 0 0 0 0 0 0 0 0 0 0 0
0 0 0 0 0 0 0 0 0 1 2 2 2 3 4 4 4 4 3 2 2 2 1 3 5 7 8 9 8 7 6 4 3 1 0 0 0 0 0 0 0 0 0 0 0 0 0 0 0
0 0 0 0 0 0 0 0 0 1 2 1 1 2 3 3 3 4 3 1 1 1 1 3 4 7 9 10 9 7 6 4 2 1 0 0 1 1 1 0 0 0 0 0 0 0 0 0 0
0 0 0 0 0 0 0 0 0 1 1 0 1 2 3 3 3 3 2 1 0 1 2 3 4 6 8 9 8 7 6 4 2 1 0 0 1 2 2 1 0 0 0 0 0 0 0 0 0
0 0 0 0 0 0 0 0 0 0 0 0 1 2 3 3 2 1 1 0 0 1 3 3 3 4 6 7 7 7 6 4 2 1 0 0 1 2 2 1 0 0 0 0 0 0 0 0 0
0 0 0 0 0 0 0 0 0 0 0 0 0 1 2 2 1 1 1 0 0 2 3 3 3 2 3 5 6 6 5 3 1 0 0 0 0 1 1 0 0 0 0 0 0 0 0 0 0
0 0 0 0 0 0 0 0 0 0 0 0 0 1 2 1 1 1 1 1 1 2 3 3 1 1 1 4 6 6 4 3 1 0 0 0 0 0 0 0 0 0 0 0 0 0 0 0 0
0 0 0 0 0 0 0 0 0 0 0 0 0 1 1 1 1 0 0 1 2 3 3 2 1 0 1 3 5 4 3 2 1 0 0 0 0 1 0 0 0 0 0 0 0 0 0 0 0
0 0 0 0 0 0 0 0 0 0 0 0 0 0 1 1 0 0 0 1 2 3 2 1 0 0 0 1 2 2 1 1 0 0 0 0 0 0 0 0 0 0 0 0 0 0 0 0 0
0 0 0 0 0 0 0 0 1 1 1 0 0 0 0 1 0 0 0 1 2 2 1 0 0 0 0 0 0 0 0 0 0 0 0 0 0 0 0 0 0 0 0 0 0 0 0 0 0
0 0 0 0 0 0 0 0 1 1 1 0 0 0 0 0 0 0 0 1 1 1 0 0 0 0 0 0 0 0 0 0 0 0 0 0 0 0 0 0 0 0 0 0 0 0 0 0 0
0 0 0 0 0 0 0 0 1 1 0 0 0 0 0 0 0 0 0 0 0 0 0 0 0 0 0 0 0 0 0 0 0 0 0 0 0 0 0 0 0 0 0 0 0 0 0 0 0
0 0 0 0 0 0 0 0 0 0 0 0 0 0 0 0 0 0 0 0 0 0 0 0 0 0 0 0 0 0 0 0 0 0 0 0 0 0 0 0 0 0 0 0 0 0 0 0 0
0 0 0 0 0 0 0 0 0 0 0 0 0 0 0 0 0 0 0 0 0 1 1 0 0 0 0 0 0 0 0 0 0 0 0 0 0 0 0 0 0 0 0 0 0 0 0 0 0
0 0 0 0 0 0 0 0 0 0 0 0 0 0 0 0 0 0 0 0 1 2 2 1 0 0 0 0 0 0 0 0 0 0 0 0 0 0 0 0 0 0 0 0 0 0 0 0 0
0 0 0 0 0 0 0 0 0 0 0 0 0 0 0 0 0 0 0 0 1 2 3 2 1 0 0 0 0 0 0 0 0 0 0 0 0 0 0 0 0 0 0 0 0 0 0 0 0
0 0 0 0 0 0 0 0 0 0 0 0 0 0 0 0 0 0 0 0 1 2 3 3 1 1 0 0 0 0 0 0 0 0 0 0 0 0 0 0 0 0 0 0 0 0 0 0 0
0 0 0 0 0 0 0 0 0 0 0 0 0 0 0 0 0 0 0 0 0 1 3 3 2 2 1 0 0 0 0 0 0 0 0 0 0 0 0 0 0 0 0 0 0 0 0 0 0